Stephenville, TX

8:57 PM CDT on May 25, 2017 (GMT -0500)
Clark Municipal

Weather History for KSEP - March, 2014

Change the Weather History Date:

Friday, March 7, 2014

  Actual Average Record
Temperature  
Mean Temperature 54 °F -  
Max Temperature 70 °F 68 °F 91 °F (1951)
Min Temperature 37 °F 43 °F 17 °F (1943)
Degree Days  
Heating Degree Days 12    
Growing Degree Days 4 (Base 50)    
Moisture  
Dew Point 38 °F    
Average Humidity 60    
Maximum Humidity 87    
Minimum Humidity 29    
Precipitation  
Precipitation 0.00 in - - ()
Sea Level Pressure  
Sea Level Pressure 29.92 in    
Wind  
Wind Speed 8 mph (South)    
Max Wind Speed 21 mph    
Max Gust Speed 32 mph    
Visibility 10 miles    
Events      
Averages and records for this station are not official NWS values.
T = Trace of Precipitation, MM = Missing Value Source: NWS Daily Summary

Daily Weather History Graph

Daily Weather History Graph

Search for Another Location

Airport or City:

Trip Planner

Search our weather history database for the weather conditions in past years. The results will help you decide how hot, cold, wet, or windy it might be!

Date:

Astronomy

Mar. 07, 2014 Rise Set
Actual Time 6:52 AM CST 6:34 PM CST
Civil Twilight 6:28 AM CST 6:59 PM CST
Nautical Twilight 6:00 AM CST 7:27 PM CST
Astronomical Twilight 5:31 AM CST 7:56 PM CST
Moon 11:07 AM CST (3/7) 12:20 AM CST (3/7)
Length of Visible Light 12h 31m
Length of Day
11h 42m
Waxing Crescent, 42% of the Moon is Illuminated
Mar 7
Waxing Crescent
Mar 8
First Quarter
Mar 16
Full
Mar 23
Last Quarter
Mar 30
New

Hourly Weather History & Observations

Time (CST) Temp. Windchill Dew Point Humidity Pressure Visibility Wind Dir Wind Speed Gust Speed Precip Events Conditions
12:15 AM 39.2 °F - 32.9 °F 78% 30.06 in 10.0 mi Calm Calm - N/A   Clear
12:35 AM 38.3 °F 35.9 °F 32.9 °F 81% 30.05 in 10.0 mi South 3.5 mph - N/A   Clear
12:55 AM 37.9 °F 35.5 °F 32.9 °F 82% 30.05 in 10.0 mi South 3.5 mph - N/A   Clear
1:15 AM 37.4 °F - 32.4 °F 82% 30.05 in 10.0 mi Calm Calm - N/A   Clear
1:35 AM 37.0 °F 33.3 °F 32.7 °F 84% 30.04 in 10.0 mi South 4.6 mph - N/A   Clear
1:55 AM 38.3 °F 32.5 °F 33.4 °F 83% 30.02 in 10.0 mi SSE 8.1 mph - N/A   Clear
2:15 AM 38.8 °F 34.6 °F 33.6 °F 82% 30.02 in 10.0 mi South 5.8 mph - N/A   Clear
2:35 AM 37.4 °F 33.8 °F 32.9 °F 84% 30.01 in 10.0 mi SSE 4.6 mph - N/A   Clear
2:55 AM 37.6 °F 33.1 °F 33.3 °F 84% 30.00 in 10.0 mi South 5.8 mph - N/A   Clear
3:15 AM 37.2 °F 32.6 °F 32.9 °F 84% 30.00 in 10.0 mi South 5.8 mph - N/A   Clear
3:35 AM 37.0 °F 33.3 °F 33.1 °F 86% 29.99 in 10.0 mi South 4.6 mph - N/A   Clear
3:55 AM 37.2 °F 33.6 °F 33.3 °F 86% 29.99 in 10.0 mi South 4.6 mph - N/A   Clear
4:15 AM 37.2 °F 34.7 °F 33.1 °F 85% 29.99 in 10.0 mi SSE 3.5 mph - N/A   Clear
4:35 AM 37.4 °F 33.8 °F 33.8 °F 87% 29.99 in 10.0 mi SSE 4.6 mph - N/A   Clear
4:55 AM 37.9 °F 34.4 °F 34.0 °F 86% 29.99 in 10.0 mi South 4.6 mph - N/A   Clear
5:15 AM 37.6 °F 35.1 °F 33.8 °F 86% 29.99 in 10.0 mi South 3.5 mph - N/A   Clear
5:35 AM 37.4 °F 34.9 °F 33.8 °F 87% 29.99 in 7.0 mi South 3.5 mph - N/A   Clear
5:55 AM 37.9 °F 35.5 °F 34.3 °F 87% 29.99 in 7.0 mi South 3.5 mph - N/A   Clear
6:15 AM 38.3 °F 34.8 °F 34.3 °F 86% 29.98 in 10.0 mi SSE 4.6 mph - N/A   Clear
6:35 AM 38.5 °F 35.0 °F 34.7 °F 86% 29.99 in 10.0 mi South 4.6 mph - N/A   Clear
6:55 AM 39.2 °F 35.9 °F 34.7 °F 84% 30.00 in 7.0 mi South 4.6 mph - N/A   Clear
7:15 AM 39.6 °F 34.7 °F 35.2 °F 85% 29.99 in 7.0 mi South 6.9 mph - N/A   Clear
7:35 AM 41.2 °F 36.6 °F 36.5 °F 83% 29.99 in 10.0 mi South 6.9 mph - N/A   Clear
7:55 AM 43.2 °F 37.4 °F 37.2 °F 80% 29.99 in 10.0 mi South 10.4 mph 16.1 mph N/A   Clear
8:15 AM 44.4 °F 39.5 °F 37.6 °F 77% 29.99 in 10.0 mi South 9.2 mph - N/A   Clear
8:35 AM 45.3 °F 41.1 °F 38.1 °F 76% 29.99 in 10.0 mi South 8.1 mph - N/A   Clear
8:55 AM 46.0 °F 41.0 °F 38.3 °F 74% 29.99 in 10.0 mi South 10.4 mph - N/A   Clear
9:15 AM 46.8 °F - 38.8 °F 74% 30.00 in 10.0 mi South 8.1 mph - N/A   Clear
9:35 AM 48.4 °F - 39.2 °F 71% 29.98 in 10.0 mi South 11.5 mph 18.4 mph N/A   Clear
9:55 AM 50.4 °F - 39.6 °F 66% 29.97 in 10.0 mi South 15.0 mph - N/A   Clear
10:15 AM 52.2 °F - 39.6 °F 62% 29.96 in 10.0 mi South 15.0 mph 20.7 mph N/A   Clear
10:35 AM 54.9 °F - 39.6 °F 56% 29.96 in 10.0 mi South 17.3 mph 21.9 mph N/A   Clear
10:55 AM 57.4 °F - 39.6 °F 51% 29.96 in 10.0 mi South 16.1 mph 21.9 mph N/A   Clear
11:15 AM 57.7 °F - 39.4 °F 50% 29.96 in 10.0 mi South 16.1 mph 23.0 mph N/A   Clear
11:35 AM 59.9 °F - 39.7 °F 47% 29.95 in 10.0 mi South 16.1 mph 21.9 mph N/A   Clear
11:55 AM 61.5 °F - 39.9 °F 45% 29.94 in 10.0 mi South 20.7 mph 24.2 mph N/A   Clear
12:15 PM 63.0 °F - 40.1 °F 43% 29.93 in 10.0 mi South 13.8 mph 20.7 mph N/A   Clear
12:35 PM 63.7 °F - 39.4 °F 41% 29.91 in 10.0 mi South 15.0 mph 21.9 mph N/A   Clear
12:55 PM 66.4 °F - 38.8 °F 36% 29.89 in 10.0 mi SSE 18.4 mph 26.5 mph N/A   Clear
1:15 PM 66.6 °F - 37.6 °F 34% 29.88 in 10.0 mi South 19.6 mph 26.5 mph N/A   Clear
1:35 PM 68.0 °F - 36.7 °F 32% 29.86 in 10.0 mi South 20.7 mph 32.2 mph N/A   Clear
1:55 PM 67.5 °F - 36.7 °F 32% 29.85 in 10.0 mi South 16.1 mph 25.3 mph N/A   Clear
2:15 PM 69.4 °F - 37.4 °F 31% 29.85 in 10.0 mi South 18.4 mph 24.2 mph N/A   Clear
2:35 PM 69.1 °F - 37.2 °F 31% 29.84 in 10.0 mi South 18.4 mph 25.3 mph N/A   Clear
2:55 PM 69.8 °F - 37.2 °F 30% 29.84 in 10.0 mi South 16.1 mph 23.0 mph N/A   Clear
3:15 PM 70.3 °F - 37.6 °F 30% 29.83 in 10.0 mi South 17.3 mph - N/A   Clear
3:35 PM 70.2 °F - 36.9 °F 30% 29.82 in 10.0 mi South 18.4 mph 26.5 mph N/A   Clear
3:55 PM 70.3 °F - 37.0 °F 30% 29.82 in 10.0 mi South 16.1 mph 28.8 mph N/A   Clear
4:15 PM 70.7 °F - 36.9 °F 29% 29.82 in 10.0 mi South 15.0 mph 23.0 mph N/A   Clear
4:35 PM 69.3 °F - 37.0 °F 31% 29.82 in 10.0 mi South 13.8 mph 25.3 mph N/A   Clear
4:55 PM 68.7 °F - 37.6 °F 32% 29.82 in 10.0 mi South 13.8 mph 23.0 mph N/A   Clear
5:15 PM 68.2 °F - 37.4 °F 32% 29.82 in 10.0 mi South 13.8 mph 24.2 mph N/A   Clear
5:40 PM 67.5 °F - 37.6 °F 33% 29.82 in 10.0 mi South 12.7 mph 21.9 mph N/A   Clear
5:55 PM 66.7 °F - 38.5 °F 35% 29.82 in 10.0 mi South 13.8 mph 24.2 mph N/A   Clear
6:15 PM 65.7 °F - 39.0 °F 38% 29.83 in 10.0 mi South 11.5 mph 21.9 mph N/A   Clear
6:35 PM 64.2 °F - 39.2 °F 40% 29.83 in 10.0 mi South 15.0 mph 18.4 mph N/A   Clear
6:55 PM 63.3 °F - 38.8 °F 40% 29.83 in 10.0 mi South 15.0 mph - N/A   Clear
7:15 PM 61.7 °F - 40.6 °F 46% 29.84 in 10.0 mi South 12.7 mph 20.7 mph N/A   Clear
7:35 PM 61.0 °F - 41.2 °F 48% 29.85 in 10.0 mi South 13.8 mph 18.4 mph N/A   Clear
7:55 PM 59.9 °F - 41.2 °F 50% 29.86 in 10.0 mi South 11.5 mph - N/A   Clear
8:15 PM 59.0 °F - 41.2 °F 52% 29.87 in 10.0 mi South 9.2 mph 17.3 mph N/A   Clear
8:35 PM 58.1 °F - 41.7 °F 54% 29.87 in 10.0 mi South 9.2 mph - N/A   Clear
8:55 PM 57.4 °F - 41.9 °F 56% 29.87 in 10.0 mi South 12.7 mph - N/A   Clear
9:15 PM 56.8 °F - 42.4 °F 59% 29.88 in 10.0 mi South 11.5 mph 17.3 mph N/A   Clear
9:35 PM 56.1 °F - 42.4 °F 60% 29.88 in 10.0 mi South 12.7 mph - N/A   Clear
9:55 PM 55.8 °F - 42.8 °F 62% 29.88 in 10.0 mi South 10.4 mph 16.1 mph N/A   Clear
10:20 PM 55.4 °F - 42.4 °F 62% 29.87 in 10.0 mi South 10.4 mph 20.7 mph N/A   Clear
10:35 PM 55.0 °F - 42.3 °F 62% 29.87 in 10.0 mi South 8.1 mph 16.1 mph N/A   Clear
10:55 PM 54.0 °F - 42.1 °F 64% 29.86 in 10.0 mi South 10.4 mph - N/A   Clear
11:15 PM 53.6 °F - 42.1 °F 65% 29.86 in 10.0 mi South 9.2 mph - N/A   Clear
11:35 PM 53.1 °F - 42.4 °F 67% 29.86 in 10.0 mi South 10.4 mph - N/A   Clear
11:55 PM 52.7 °F - 42.8 °F 69% 29.85 in 10.0 mi South 8.1 mph - N/A   Clear